RH
14 9 6 5 5 5 4 4 4 4 5 4 5 3 2 2 2 2 3 3 3 3 3 3 3 4 4 5 6 11 16 19 25
12 9 7 6 5 5 4 4 4 5 5 5 4 2 2 2 2 3 4 5 5 5 5 5 4 4 4 4 5 7 12 16 21
12 10 8 6 6 5 5 5 5 5 6 4 3 2 2 2 2 3 4 4 5 6 7 7 7 6 6 5 6 6 8 13 14
12 11 10 8 6 6 6 6 6 6 6 3 2 2 2 2 3 3 4 4 5 6 6 8 8 8 8 8 8 8 10 11 15
14 12 10 8 7 7 7 6 7 7 4 2 2 2 3 4 4 4 5 5 6 6 7 8 8 8 8 10 10 9 11 12 14
15 13 10 8 8 8 8 8 8 7 3 2 2 3 4 4 4 5 5 6 7 8 9 10 10 10 8 9 11 12 9 11 13
16 13 10 10 9 10 9 9 8 5 3 4 4 4 4 5 5 6 6 6 8 10 10 10 12 12 10 8 11 13 13 9 12
16 12 11 11 11 11 10 10 8 4 3 5 6 7 7 8 8 9 8 9 10 10 9 9 9 11 12 6 5 12 16 14 9
15 13 12 12 12 12 11 10 7 3 4 6 8 10 11 13 14 14 14 13 11 11 13 12 10 9 10 9 5 6 10 18 12
16 14 12 12 13 13 12 10 5 4 6 8 8 9 10 11 13 13 13 12 12 13 15 14 12 10 9 10 8 5 7 14 15
17 14 13 12 13 14 14 11 6 4 8 8 8 9 10 12 11 12 12 12 13 14 13 12 12 12 10 9 10 7 6 8 14
18 15 13 13 13 15 15 12 4 5 10 10 10 12 13 13 14 16 17 17 16 16 17 18 17 17 15 13 10 10 7 8 10
18 16 13 13 14 15 16 14 5 5 11 11 12 13 14 15 16 18 20 20 21 23 24 24 23 22 20 18 15 11 10 7 9
18 16 14 13 14 15 17 16 8 4 11 12 13 15 17 18 19 19 20 22 24 26 27 30 31 28 26 23 20 15 12 12 8
18 16 14 14 15 17 17 14 6 4 9 12 14 16 17 16 17 20 22 24 26 30 33 34 35 36 34 29 26 22 16 13 13
17 16 14 15 16 17 17 12 5 5 9 14 16 17 15 15 17 21 25 29 32 37 40 41 42 41 40 38 34 28 22 17 14
17 16 16 16 17 18 16 8 6 7 10 15 16 15 16 19 22 25 30 36 40 43 45 46 46 48 48 45 42 38 30 23 18
17 16 16 18 21 20 14 7 9 16 16 14 15 16 20 25 31 36 39 42 46 49 50 53 54 53 52 52 49 45 39 31 24
17 17 18 22 22 17 10 9 15 17 16 19 23 27 31 34 38 43 45 49 50 52 58 59 58 59 58 58 55 52 48 41 32
17 19 22 24 16 11 14 19 20 23 29 33 36 38 40 41 42 46 50 43 40 44 49 52 56 60 63 62 59 58 56 51 43
Wind_Speed
17 17 18 19 21 23 26 29 32 34 36 39 40 40 32 22 21 21 20 19 18 17 17 18 18 18 19 23 28 30 30 30 31
17 18 19 20 22 25 28 30 32 35 38 39 40 33 24 19 20 19 19 20 21 21 21 20 20 20 20 20 22 27 30 29 31
19 19 20 21 23 26 28 30 33 37 38 38 34 27 20 18 19 20 21 22 22 22 21 21 21 21 21 22 21 23 27 29 30
20 21 22 23 24 27 29 31 34 37 37 34 27 23 20 19 20 22 23 22 21 21 21 21 22 23 24 24 23 23 24 27 28
22 23 24 25 26 28 30 31 34 35 34 28 22 19 17 18 19 20 21 21 22 22 23 23 23 23 25 26 27 26 24 24 27
24 24 24 26 27 29 30 32 34 35 29 23 21 18 16 18 19 20 20 21 22 23 24 25 25 26 27 28 29 29 28 26 25
25 25 26 27 29 30 31 32 34 32 24 20 19 18 16 18 19 20 21 22 23 22 22 23 24 26 28 28 30 31 31 28 26
24 25 27 29 30 31 31 32 33 29 21 19 18 17 16 19 22 23 23 23 20 19 22 23 24 25 27 28 29 29 30 30 27
24 25 27 29 30 31 31 32 32 25 20 20 19 18 19 21 24 25 24 21 20 22 25 25 25 25 25 26 28 27 27 27 28
25 26 28 29 30 31 31 32 30 23 21 22 21 21 22 24 24 25 24 22 23 26 28 28 28 28 28 26 27 28 27 24 25
27 26 28 29 30 31 32 32 32 24 23 23 23 23 24 25 24 23 23 25 27 29 31 32 32 31 30 28 27 28 27 24 23
28 28 29 30 31 32 34 34 32 26 26 25 25 25 26 26 24 23 24 25 26 28 29 31 31 32 32 31 29 27 28 25 24
31 30 30 31 32 34 36 36 34 29 29 29 29 29 28 28 27 27 26 27 29 30 32 33 34 34 33 32 30 28 26 27 26
33 32 32 32 34 35 37 38 37 32 31 32 32 32 32 31 31 31 30 30 31 32 34 34 34 34 34 34 34 31 27 25 27
34 33 34 35 35 36 38 38 36 32 32 34 34 34 35 35 34 34 35 36 37 37 38 38 38 37 36 34 33 34 32 27 25
34 35 36 37 38 38 39 39 37 34 34 36 36 37 38 38 38 38 39 40 41 42 42 42 42 42 41 38 35 34 34 32 28
35 36 37 39 41 41 41 40 37 36 38 40 39 39 40 42 43 44 45 45 46 46 47 47 46 44 43 43 39 36 35 35 32
37 39 41 43 44 43 43 41 40 40 41 40 42 44 45 47 47 48 48 50 50 50 51 50 50 49 48 46 43 41 38 37 37
40 42 45 46 46 46 45 43 43 43 43 46 47 49 51 52 53 53 53 54 54 55 55 54 54 53 51 49 48 45 43 41 40
45 47 48 49 49 47 46 45 46 47 48 50 52 54 56 57 56 56 58 58 59 58 58 57 56 55 53 52 51 50 49 46 44
Wind_Direction
317 311 304 301 307 313 316 319 321 323 325 326 328 329 329 328 333 348 352 355 349 346 343 336 327 320 306 289 278 276 273 267 264
312 309 306 305 308 312 316 319 322 326 328 331 331 330 328 331 337 354 4 10 10 7 3 357 346 332 319 309 290 278 274 271 268
313 312 310 309 311 315 319 323 328 329 333 333 333 333 330 332 337 342 350 357 358 358 355 349 344 337 328 319 311 294 278 274 270
320 316 315 316 318 321 325 327 329 333 334 334 334 334 331 329 337 337 340 345 346 346 343 340 335 329 324 318 311 307 297 282 275
320 320 321 321 323 328 329 331 332 335 336 333 334 332 335 332 339 338 338 337 335 334 332 330 328 322 317 312 306 303 301 294 283
319 320 322 325 329 331 333 334 335 336 335 333 334 334 335 327 332 330 328 326 325 325 324 325 323 320 315 309 304 299 295 295 291
320 323 325 330 332 333 335 335 335 334 329 331 333 335 333 324 323 321 319 321 322 324 326 328 323 318 314 309 302 298 292 289 290
321 325 328 332 334 335 336 335 334 332 325 325 326 327 326 320 318 319 318 320 320 325 327 330 328 326 322 313 307 297 291 287 284
322 327 330 335 336 336 334 332 330 324 317 316 315 317 317 314 316 314 315 315 315 320 323 326 326 324 325 319 312 302 293 287 281
323 326 330 333 335 334 331 328 325 314 308 308 307 308 310 311 314 313 314 313 312 315 320 321 324 326 326 325 318 311 302 287 279
322 324 328 330 331 331 327 323 320 304 303 301 301 303 309 313 315 315 315 314 313 316 321 322 323 323 322 322 321 316 308 293 279
320 322 325 326 327 328 324 320 317 299 297 294 297 301 305 311 314 318 318 316 314 314 316 316 318 320 319 320 320 319 311 298 283
317 318 320 322 324 324 322 319 316 297 294 293 295 298 300 301 304 308 308 308 309 311 313 315 316 315 314 315 316 315 313 304 289
312 314 316 317 318 319 320 318 315 298 294 295 297 299 300 301 301 301 304 305 306 308 310 311 311 311 309 308 310 311 308 305 295
309 311 312 313 313 315 317 314 309 297 293 297 300 297 297 300 303 305 306 307 307 307 307 307 307 306 305 302 301 303 305 302 297
307 309 308 308 310 311 310 309 303 294 292 297 295 295 298 301 302 303 303 303 303 304 306 306 304 303 301 299 296 293 295 296 294
306 305 303 304 306 307 307 305 301 296 294 297 296 298 300 301 301 301 302 302 301 300 299 299 298 297 296 295 292 289 285 287 289
301 300 301 302 305 304 303 302 298 298 298 298 299 299 299 299 299 299 299 298 297 295 294 294 294 294 293 291 289 287 282 279 281
298 298 299 301 301 301 300 299 298 298 298 299 300 299 299 298 298 297 296 295 294 292 291 291 291 290 289 286 285 282 279 275 273
295 296 298 299 300 299 300 299 298 298 299 299 299 298 297 296 295 294 293 294 293 292 291 289 287 286 284 282 280 280 279 274 269